| time (UTC) | temp F | wind direction | speed MPH | gust MPH | rain 1hr in | rain 24hr in | rain mn in | humidity % | barometer mb |
| 20260904181838 | 92 | 274 | 2.0 | 3.0 | 0.00 | 0.05 | 0.05 | 67 | 1013.8 |
| 20260904180833 | 91 | 278 | 2.0 | 2.0 | 0.00 | 0.05 | 0.05 | 70 | 1013.8 |
| 20260904175833 | 91 | 295 | 2.0 | 3.0 | 0.00 | 0.05 | 0.05 | 67 | 1013.8 |
| 20260904174832 | 90 | 245 | 2.0 | 2.0 | 0.00 | 0.05 | 0.05 | 72 | 1014.0 |
| 20260904173830 | 91 | 241 | 4.0 | 4.0 | 0.00 | 0.05 | 0.05 | 70 | 1014.1 |
| 20260904172827 | 89 | 233 | 0.0 | 0.0 | 0.00 | 0.05 | 0.05 | 68 | 1014.3 |
| 20260904171827 | 90 | 259 | 1.0 | 1.0 | 0.00 | 0.05 | 0.05 | 67 | 1014.1 |
| 20260904170824 | 89 | 293 | 1.0 | 2.0 | 0.00 | 0.05 | 0.05 | 69 | 1014.3 |
| 20260904165820 | 89 | 256 | 1.0 | 2.0 | 0.00 | 0.05 | 0.05 | 70 | 1014.5 |
| 20260904164821 | 89 | 248 | 2.0 | 2.0 | 0.00 | 0.05 | 0.05 | 73 | 1014.5 |
| 20260904163817 | 87 | 179 | 0.0 | 1.0 | 0.00 | 0.05 | 0.05 | 72 | 1014.8 |
| 20260904162816 | 88 | 261 | 1.0 | 1.0 | 0.00 | 0.05 | 0.05 | 71 | 1014.8 |
| 20260904161813 | 87 | 269 | 2.0 | 2.0 | 0.00 | 0.05 | 0.05 | 70 | 1014.7 |
| 20260904160808 | 87 | 230 | 2.0 | 4.0 | 0.00 | 0.05 | 0.05 | 69 | 1015.0 |
| 20260904155809 | 88 | 226 | 4.0 | 6.0 | 0.00 | 0.05 | 0.05 | 71 | 1015.1 |
| 20260904154808 | 87 | 302 | 2.0 | 2.0 | 0.00 | 0.05 | 0.05 | 71 | 1014.9 |
| 20260904153805 | 87 | 332 | 2.0 | 3.0 | 0.00 | 0.05 | 0.05 | 69 | 1015.0 |
| 20260904152802 | 87 | 269 | 0.0 | 1.0 | 0.00 | 0.05 | 0.05 | 72 | 1015.0 |
| 20260904151758 | 86 | 266 | 2.0 | 3.0 | 0.00 | 0.05 | 0.05 | 73 | 1015.0 |
| 20260904150753 | 86 | 8 | 3.0 | 3.0 | 0.00 | 0.05 | 0.05 | 72 | 1015.3 |
| 20260904145751 | 85 | 271 | 4.0 | 6.0 | 0.00 | 0.05 | 0.05 | 74 | 1015.1 |
| 20260904144749 | 85 | 214 | 2.0 | 2.0 | 0.00 | 0.05 | 0.05 | 75 | 1015.1 |
| 20260904143746 | 86 | 222 | 3.0 | 4.0 | 0.00 | 0.05 | 0.05 | 75 | 1015.0 |
| 20260904142744 | 85 | 300 | 2.0 | 3.0 | 0.00 | 0.05 | 0.05 | 77 | 1015.1 |
| 20260904141740 | 84 | 232 | 1.0 | 1.0 | 0.00 | 0.05 | 0.05 | 75 | 1015.1 |
| 20260904140737 | 84 | 277 | 2.0 | 2.0 | 0.00 | 0.05 | 0.05 | 76 | 1015.4 |
| 20260904135736 | 85 | 210 | 0.0 | 0.0 | 0.00 | 0.05 | 0.05 | 76 | 1015.1 |
| 20260904134734 | 84 | 232 | 0.0 | 1.0 | 0.00 | 0.05 | 0.05 | 78 | 1015.4 |
| 20260904133734 | 84 | 270 | 3.0 | 3.0 | 0.00 | 0.05 | 0.05 | 78 | 1015.1 |
| 20260904132730 | 82 | 250 | 0.0 | 0.0 | 0.00 | 0.05 | 0.05 | 84 | 1015.1 |
| 20260904131724 | 78 | 219 | 0.0 | 0.0 | 0.00 | 0.05 | 0.05 | 91 | 1015.0 |
| 20260904130720 | 77 | 216 | 0.0 | 0.0 | 0.00 | 0.05 | 0.05 | 99 | 1015.3 |
| 20260904125716 | 75 | 209 | 0.0 | 0.0 | 0.00 | 0.05 | 0.05 | 99 | 1015.3 |
| 20260904124712 | 75 | 194 | 0.0 | 0.0 | 0.00 | 0.05 | 0.05 | 99 | 1015.5 |
| 20260904123708 | 74 | 104 | 0.0 | 0.0 | 0.00 | 0.05 | 0.05 | 99 | 1015.5 |
| 20260904122704 | 74 | 249 | 0.0 | 0.0 | 0.00 | 0.05 | 0.05 | 99 | 1015.1 |
| 20260904121659 | 73 | 232 | 0.0 | 0.0 | 0.00 | 0.05 | 0.05 | 99 | 1015.4 |
| 20260904120657 | 72 | 216 | 0.0 | 0.0 | 0.00 | 0.05 | 0.05 | 99 | 1014.8 |
| 20260904115654 | 71 | 182 | 0.0 | 0.0 | 0.00 | 0.05 | 0.05 | 99 | 1014.8 |
| 20260904114654 | 70 | 216 | 0.0 | 0.0 | 0.00 | 0.05 | 0.05 | 99 | 1015.1 |
| 20260904113649 | 70 | 207 | 0.0 | 0.0 | 0.00 | 0.05 | 0.05 | 99 | 1015.1 |
| 20260904112644 | 69 | 205 | 0.0 | 0.0 | 0.00 | 0.05 | 0.05 | 99 | 1015.1 |
| 20260904111641 | 69 | 209 | 0.0 | 0.0 | 0.00 | 0.05 | 0.05 | 99 | 1014.9 |
| 20260904110638 | 69 | 233 | 0.0 | 0.0 | 0.00 | 0.05 | 0.05 | 99 | 1015.4 |
| 20260904105637 | 69 | 239 | 0.0 | 0.0 | 0.00 | 0.05 | 0.05 | 99 | 1015.0 |
| 20260904104634 | 69 | 223 | 0.0 | 0.0 | 0.00 | 0.05 | 0.05 | 99 | 1014.6 |
| 20260904103631 | 69 | 201 | 0.0 | 0.0 | 0.00 | 0.05 | 0.05 | 99 | 1014.5 |
| 20260904102629 | 69 | 239 | 0.0 | 0.0 | 0.00 | 0.05 | 0.05 | 99 | 1014.6 |
| 20260904101626 | 69 | 220 | 0.0 | 0.0 | 0.00 | 0.05 | 0.05 | 99 | 1014.3 |
| 20260904100623 | 69 | 218 | 0.0 | 0.0 | 0.00 | 0.05 | 0.05 | 99 | 1014.1 |
| 20260904095619 | 69 | 222 | 0.0 | 0.0 | 0.00 | 0.05 | 0.05 | 99 | 1013.8 |
| 20260904094614 | 69 | 221 | 0.0 | 0.0 | 0.00 | 0.05 | 0.05 | 99 | 1013.7 |
| 20260904093612 | 69 | 216 | 0.0 | 0.0 | 0.00 | 0.05 | 0.05 | 99 | 1013.7 |
| 20260904092608 | 69 | 224 | 0.0 | 0.0 | 0.00 | 0.05 | 0.05 | 99 | 1013.7 |
| 20260904091606 | 69 | 219 | 0.0 | 0.0 | 0.00 | 0.05 | 0.05 | 99 | 1013.5 |
| 20260904090607 | 69 | 206 | 0.0 | 0.0 | 0.00 | 0.05 | 0.05 | 99 | 1013.7 |
| 20260904085602 | 69 | 218 | 0.0 | 0.0 | 0.00 | 0.05 | 0.05 | 99 | 1013.8 |
| 20260904084558 | 69 | 230 | 0.0 | 0.0 | 0.00 | 0.05 | 0.05 | 99 | 1013.7 |
| 20260904083555 | 69 | 201 | 0.0 | 0.0 | 0.00 | 0.05 | 0.05 | 99 | 1014.1 |
| 20260904082552 | 69 | 217 | 0.0 | 0.0 | 0.00 | 0.05 | 0.05 | 99 | 1014.0 |
| 20260904081548 | 69 | 215 | 0.0 | 0.0 | 0.00 | 0.05 | 0.05 | 99 | 1014.0 |
| 20260904080545 | 69 | 232 | 0.0 | 0.0 | 0.00 | 0.05 | 0.05 | 99 | 1014.0 |
| 20260904075543 | 69 | 224 | 0.0 | 0.0 | 0.00 | 0.05 | 0.05 | 99 | 1013.8 |
| 20260904074542 | 69 | 214 | 0.0 | 0.0 | 0.00 | 0.05 | 0.05 | 99 | 1013.7 |
| 20260904073538 | 69 | 206 | 0.0 | 0.0 | 0.00 | 0.05 | 0.05 | 99 | 1013.6 |
| 20260904072536 | 69 | 220 | 0.0 | 0.0 | 0.00 | 0.05 | 0.05 | 99 | 1013.7 |
| 20260904071532 | 69 | 220 | 0.0 | 0.0 | 0.00 | 0.05 | 0.05 | 99 | 1014.1 |
| 20260904070532 | 69 | 212 | 0.0 | 0.0 | 0.00 | 0.05 | 0.05 | 99 | 1013.9 |
| 20260904065528 | 69 | 208 | 0.0 | 0.0 | 0.00 | 0.05 | 0.05 | 99 | 1013.9 |
| 20260904064526 | 69 | 198 | 0.0 | 0.0 | 0.00 | 0.05 | 0.05 | 99 | 1013.7 |
| 20260904063523 | 69 | 215 | 0.0 | 0.0 | 0.00 | 0.05 | 0.05 | 99 | 1013.7 |
| 20260904062520 | 69 | 209 | 0.0 | 0.0 | 0.00 | 0.05 | 0.05 | 99 | 1013.2 |
| 20260904061516 | 69 | 115 | 0.0 | 0.0 | 0.00 | 0.05 | 0.05 | 99 | 1012.9 |
| 20260904060515 | 69 | 218 | 0.0 | 0.0 | 0.00 | 0.05 | 0.05 | 99 | 1012.9 |
| 20260904055511 | 70 | 238 | 0.0 | 0.0 | 0.00 | 0.05 | 0.05 | 99 | 1013.1 |
| 20260904054508 | 70 | 220 | 0.0 | 0.0 | 0.00 | 0.05 | 0.05 | 99 | 1013.2 |
| 20260904053503 | 70 | 193 | 0.0 | 0.0 | 0.00 | 0.05 | 0.05 | 99 | 1013.2 |
| 20260904052500 | 70 | 198 | 0.0 | 0.0 | 0.05 | 0.05 | 0.05 | 99 | 1013.7 |
| 20260904051459 | 70 | 215 | 0.0 | 0.0 | 0.07 | 0.04 | 0.04 | 99 | 1014.2 |
| 20260904050454 | 70 | 184 | 1.0 | 1.0 | 0.07 | 0.03 | 0.03 | 99 | 1014.6 |
| 20260904045449 | 70 | 222 | 0.0 | 0.0 | 0.05 | 0.02 | 0.02 | 99 | 1015.6 |
| 20260904044446 | 70 | 214 | 0.0 | 0.0 | 0.07 | 0.01 | 0.01 | 99 | 1015.7 |
| 20260904043444 | 70 | 217 | 0.0 | 0.0 | 0.00 | 0.00 | 0.00 | 99 | 1015.8 |
| 20260904042442 | 70 | 167 | 0.0 | 0.0 | 0.00 | 0.00 | 0.00 | 99 | 1016.5 |
| 20260904041439 | 70 | 211 | 0.0 | 0.0 | 0.00 | 0.00 | 0.00 | 99 | 1017.0 |
| 20260904040434 | 70 | 217 | 0.0 | 0.0 | 0.00 | 0.00 | 0.00 | 99 | 1017.2 |
| 20260904035432 | 70 | 223 | 0.0 | 0.0 | 0.00 | 0.54 | 0.54 | 99 | 1016.8 |
| 20260904034427 | 71 | 233 | 0.0 | 1.0 | 0.28 | 0.54 | 0.54 | 99 | 1016.5 |
| 20260904033424 | 71 | 17 | 5.0 | 7.0 | 1.16 | 0.49 | 0.49 | 99 | 1016.7 |
| 20260904032422 | 74 | 3 | 2.0 | 6.0 | 0.59 | 0.26 | 0.26 | 96 | 1017.9 |
| 20260904031417 | 76 | 299 | 4.0 | 7.0 | 0.97 | 0.16 | 0.16 | 95 | 1016.1 |
| 20260904030413 | 80 | 224 | 0.0 | 0.0 | 0.00 | 0.00 | 0.00 | 96 | 1014.9 |
| 20260904025410 | 79 | 219 | 0.0 | 0.0 | 0.00 | 0.00 | 0.00 | 98 | 1013.6 |
| 20260904024405 | 79 | 218 | 0.0 | 0.0 | 0.00 | 0.00 | 0.00 | 98 | 1013.6 |
| 20260904023403 | 79 | 194 | 0.0 | 0.0 | 0.00 | 0.00 | 0.00 | 98 | 1014.1 |
| 20260904022359 | 79 | 221 | 0.0 | 0.0 | 0.00 | 0.00 | 0.00 | 96 | 1014.6 |
| 20260904021356 | 79 | 254 | 0.0 | 0.0 | 0.00 | 0.00 | 0.00 | 96 | 1014.2 |
| 20260904020352 | 80 | 205 | 0.0 | 0.0 | 0.00 | 0.00 | 0.00 | 96 | 1014.3 |
| 20260904015347 | 80 | 209 | 0.0 | 0.0 | 0.00 | 0.00 | 0.00 | 94 | 1014.4 |
| 20260904014346 | 80 | 203 | 0.0 | 0.0 | 0.00 | 0.00 | 0.00 | 94 | 1014.5 |
| 20260904013343 | 81 | 185 | 1.0 | 1.0 | 0.00 | 0.00 | 0.00 | 92 | 1014.3 |
| 20260904012340 | 81 | 210 | 0.0 | 0.0 | 0.00 | 0.00 | 0.00 | 92 | 1014.4 |
| 20260904011334 | 82 | 219 | 0.0 | 0.0 | 0.00 | 0.00 | 0.00 | 91 | 1014.5 |
| 20260904010332 | 82 | 192 | 1.0 | 1.0 | 0.00 | 0.00 | 0.00 | 90 | 1014.3 |
| 20260904005328 | 82 | 177 | 1.0 | 2.0 | 0.00 | 0.00 | 0.00 | 90 | 1014.4 |
| 20260904004325 | 82 | 177 | 0.0 | 0.0 | 0.00 | 0.00 | 0.00 | 90 | 1014.2 |
| 20260904003322 | 82 | 203 | 0.0 | 0.0 | 0.00 | 0.00 | 0.00 | 89 | 1014.5 |
| 20260904002319 | 82 | 198 | 0.0 | 0.0 | 0.00 | 0.00 | 0.00 | 90 | 1014.8 |
| 20260904001319 | 83 | 153 | 1.0 | 1.0 | 0.00 | 0.00 | 0.00 | 88 | 1014.8 |
| 20260904000313 | 83 | 214 | 0.0 | 0.0 | 0.00 | 0.00 | 0.00 | 88 | 1014.9 |
| 20260903235310 | 83 | 202 | 0.0 | 0.0 | 0.00 | 0.00 | 0.00 | 87 | 1014.9 |
| 20260903234306 | 84 | 212 | 0.0 | 0.0 | 0.00 | 0.00 | 0.00 | 86 | 1014.9 |
| 20260903233303 | 84 | 220 | 0.0 | 0.0 | 0.00 | 0.00 | 0.00 | 85 | 1014.4 |
| 20260903232258 | 85 | 216 | 1.0 | 1.0 | 0.00 | 0.00 | 0.00 | 83 | 1014.0 |
| 20260903231258 | 86 | 249 | 0.0 | 0.0 | 0.00 | 0.00 | 0.00 | 82 | 1013.8 |
| 20260903230253 | 86 | 204 | 0.0 | 0.0 | 0.00 | 0.00 | 0.00 | 81 | 1014.0 |
| 20260903225252 | 87 | 217 | 0.0 | 0.0 | 0.00 | 0.00 | 0.00 | 80 | 1014.2 |
| 20260903224250 | 87 | 210 | 0.0 | 1.0 | 0.00 | 0.00 | 0.00 | 79 | 1013.7 |
| 20260903223249 | 88 | 189 | 0.0 | 1.0 | 0.00 | 0.00 | 0.00 | 79 | 1013.7 |
| 20260903222249 | 89 | 225 | 0.0 | 1.0 | 0.00 | 0.00 | 0.00 | 77 | 1013.6 |
| 20260903221249 | 89 | 203 | 1.0 | 2.0 | 0.00 | 0.00 | 0.00 | 76 | 1013.6 |
| 20260903220249 | 90 | 190 | 2.0 | 2.0 | 0.00 | 0.00 | 0.00 | 73 | 1013.9 |
| 20260903215243 | 90 | 214 | 0.0 | 0.0 | 0.00 | 0.00 | 0.00 | 73 | 1013.8 |
| 20260903214243 | 91 | 189 | 4.0 | 4.0 | 0.00 | 0.00 | 0.00 | 71 | 1013.8 |
| 20260903213239 | 92 | 340 | 2.0 | 3.0 | 0.00 | 0.00 | 0.00 | 71 | 1013.8 |
| 20260903212238 | 92 | 232 | 1.0 | 1.0 | 0.00 | 0.00 | 0.00 | 68 | 1013.9 |
| 20260903211233 | 93 | 186 | 1.0 | 2.0 | 0.00 | 0.00 | 0.00 | 66 | 1013.8 |
| 20260903210230 | 92 | 210 | 3.0 | 3.0 | 0.00 | 0.00 | 0.00 | 66 | 1014.0 |
| 20260903205229 | 93 | 164 | 2.0 | 2.0 | 0.00 | 0.00 | 0.00 | 67 | 1013.9 |
| 20260903204227 | 93 | 206 | 2.0 | 2.0 | 0.00 | 0.00 | 0.00 | 64 | 1014.0 |
| 20260903203224 | 93 | 239 | 1.0 | 1.0 | 0.00 | 0.00 | 0.00 | 66 | 1014.1 |
| 20260903202220 | 93 | 227 | 4.0 | 4.0 | 0.00 | 0.00 | 0.00 | 65 | 1014.3 |
| 20260903201214 | 92 | 186 | 3.0 | 7.0 | 0.00 | 0.00 | 0.00 | 66 | 1014.3 |
| 20260903200215 | 93 | 274 | 2.0 | 2.0 | 0.00 | 0.00 | 0.00 | 65 | 1014.5 |
| 20260903195211 | 93 | 318 | 1.0 | 2.0 | 0.00 | 0.00 | 0.00 | 66 | 1014.7 |
| 20260903194207 | 93 | 165 | 5.0 | 6.0 | 0.00 | 0.00 | 0.00 | 69 | 1015.0 |
| 20260903193202 | 91 | 189 | 0.0 | 1.0 | 0.00 | 0.00 | 0.00 | 72 | 1015.4 |
| 20260903192159 | 91 | 248 | 1.0 | 2.0 | 0.00 | 0.00 | 0.00 | 68 | 1015.1 |
| 20260903191155 | 91 | 270 | 2.0 | 2.0 | 0.00 | 0.00 | 0.00 | 67 | 1015.3 |
| 20260903190150 | 92 | 245 | 1.0 | 2.0 | 0.00 | 0.00 | 0.00 | 68 | 1015.4 |
| 20260903185146 | 90 | 264 | 1.0 | 1.0 | 0.00 | 0.00 | 0.00 | 71 | 1015.6 |
| 20260903184144 | 91 | 224 | 0.0 | 0.0 | 0.00 | 0.00 | 0.00 | 73 | 1015.6 |
| 20260903183144 | 89 | 186 | 1.0 | 2.0 | 0.00 | 0.00 | 0.00 | 73 | 1016.2 |